ASIASAT 9 (42942 NORAD) Tracking and Keplerian Element Data

This shows tracking and keplerian element data for the satellite.

Feedback or suggestion? Click here.




ElementValue
Catalog42942
NameASIASAT 9
Epoch Orbit570
Epoch Day108.96321149
Epoch Year2019
RAAN208.1155
Inclination0.0268
Eccentricity0.0002262
Argument of Perigee167.8922
Mean Anonmoly299.6214
Mean Motion1.002707
Decay Rate-3.8E-06
L11 42942U 17057A 19108.96321149 -.00000380 00000-0 00000+0 0 9996
L22 42942 0.0268 208.1155 0002262 167.8922 299.6214 1.00270700 5700

Live tracking and technical data element details for ASIASAT 9 (NORAD 42942). ASIASAT 9 can be tracked NOW for your location showing map with azimuth and elevation plus other details from your city location.

Track the satellite on the map from your city or location and see movement details for azimuth, elevation, latitude, longitude, range, height, and movement on the map or in text.







IsCatalogInMostPopularTable: catalog: 42942, numindb: 241
Update: records affected: 1



GetName: 42942 ASIASAT 9

Hit Count: updated at: Sat, 20 Apr 2019 21:07:58 GMT